Location: Tr�vern
(48.0333°N, 4.6000°W)
Time: 08:45:01
(UTC+00:00)

SL-16 R/B - Pass Details

Date: 14 July 2020
Orbit: 842 x 846 km, 71.0° (Epoch: 04 August)

Event Time Altitude Azimuth Distance (km) Brightness Sun altitude
Rises 03:45:16 0° 332° (NNW) 3,418 5.6 -7.1°
Reaches altitude 10° 03:47:44 10° 334° (NNW) 2,479 4.9 -6.8°
Maximum altitude 03:53:26 82° 61° (ENE) 860 2.4 -6.1°
Drops below altitude 10° 03:59:06 10° 151° (SSE) 2,462 4.5 -5.4°
Sets 04:01:33 0° 152° (SSE) 3,393 5.2 -5.1°
